Weather in Batovo

Russia / Saint-Petersburg and Leningrad Oblast     59°19′08″N   29°54′00″E
temp.,
°C
wind,
m/s
gust,
m/s
humid.,
%
clouds,
%
prec.,
mm/h
press.,
hPa
HPBL,
m
10 april, sat
sat1000:00+3ssw71693100 0.8 10091284
03:00+3ssw71684100 1.4 10091327
06:00+3ssw6148178 0.1 10091096
09:00+5ssw61376100 0.1 10101328
12:00+4ssw51295100 0.1 1010872
15:00+4sw51190100 1.1 1011818
18:00+5sw5107596 0.7 10121503
21:00+2wsw412640 0.7 1015666
11 april, sun
sun1100:000sw311782 0.0 1018355
03:00−1sw39855 0.0 1020232
06:00−1sw39845 0.0 1022233
09:00+3sw48585 0.0 1024420
12:00+8sw3436100 0.0 10251121
15:00+9ssw332847 0.0 10261748
18:00+8sse2438100 0.0 1027576
21:00+3ese2258100 0.0 102828
12 april, mon
mon1200:00+3se2577100 0.0 1029109
03:00+4ese278785 0.0 1028182
06:00+3se399732 0.0 1027224
09:00+8sse4108229 0.0 1026353
12:00+14s595456 0.0 1025930
15:00+16s584341 0.0 10241472
18:00+15sse48495 0.0 10231229
21:00+9sse210750 0.0 1023185
13 april, tue
tue1300:00+7sse26810 0.0 1022117
03:00+6sse268937 0.0 102191
06:00+5sse2590100 0.0 102082
09:00+9s377065 0.0 1020275
12:00+14ssw365042 0.0 1019927
15:00+14sw344693 0.0 10191234
18:00+12wnw126299 0.0 101982
21:00+10nne1171100 0.0 101910
14 april, wed
wed1400:00+9e227660 0.0 101938
03:00+6se22889 0.0 101811
06:00+6e229789 0.0 101722
09:00+9e2496100 1.2 1015209
12:00+11se2595100 3.2 1014382
15:00+9s1599100 5.4 1013278
18:00+6nw3596100 0.9 1014213
21:00+5nw3795100 2.1 1014276